1393027231082,114.130
1393027291082,114.388
1393027351082,114.466
1393027411082,113.980
1393027471082,113.548
1393027531082,114.261
1393027591082,113.779
1393027651082,114.006
1393027711081,114.663
1393027771081,113.915
1393027831081,114.052
1393027891081,114.216
1393027951081,114.215
1393028011081,113.736
1393028071081,114.162
1393028131081,113.468
1393028191081,114.187
1393028251082,113.773
1393028311082,113.829
1393028371082,114.159
1393028431081,113.957
1393028491081,114.020
1393028551082,114.131
1393028611082,113.798
1393028671082,114.045
1393028731082,114.275
1393028791082,113.716
1393028851082,114.194
1393028911082,114.097
1393028971082,114.118
1393029031082,113.770
1393029091081,114.202
1393029151081,113.740
1393029211081,113.891
1393029271081,114.095
1393029331081,113.720
1393029391081,114.184
1393029451081,113.749
1393029511081,114.378
1393029571082,113.448
1393029631082,113.960
1393029691082,113.824
1393029751081,113.452
1393029811081,114.019
1393029871081,113.882
1393029931082,113.704
1393029991082,113.967
1393030051082,114.048
1393030111082,114.083
1393030171082,113.893
1393030231082,113.733
1393030291082,113.968
1393030351082,113.604
1393030411081,113.832
1393030471081,114.037
1393030531081,113.636
1393030591081,113.753
1393030651081,114.013
1393030711081,113.970
1393030771081,113.808
1393030831092,114.277
1393030891092,113.709
1393030951092,113.705
1393031011092,113.683
1393031071092,114.147
1393031131092,113.602
1393031191092,113.540
1393031251092,113.912
1393031311092,114.223
1393031371092,113.812
1393031431092,113.901
1393031491092,114.618
1393031551092,113.742
1393031611092,114.267
1393031671092,114.069
1393031731092,113.217
1393031791092,114.069
1393031851092,114.385
1393031911092,114.325
1393031971092,113.749
1393032031092,114.454
1393032091092,114.333
1393032151092,114.023
1393032211092,114.245
1393032271092,114.059
1393032331092,114.167
1393032391092,113.917
1393032451092,114.239
1393032511092,114.663
1393032571092,114.364
1393032631092,114.453
1393032691092,114.128
1393032751092,114.259
1393032811092,114.400
1393032871092,114.310
1393032931092,114.422
1393032991092,114.392
1393033051092,114.402
1393033111092,114.921
1393033171092,114.313
1393033231092,114.467
1393033291092,114.535
1393033351092,114.636
1393033411092,114.561
1393033471092,114.492
1393033531092,114.914
1393033591092,114.292
1393033651092,114.646
1393033711092,113.915
1393033771092,114.595
1393033831092,114.966
1393033891092,115.109
1393033951092,114.564
1393034011092,114.548
1393034071092,114.675
1393034131092,114.842
1393034191092,114.656
1393034251092,114.643
1393034311092,115.000
1393034371092,115.008
1393034431103,114.444
1393034491103,114.930
1393034551103,115.140
1393034611103,114.720
1393034671103,115.154
1393034731103,114.916
1393034791103,115.058
1393034851103,115.032
1393034911103,114.942
1393034971103,115.469
1393035031103,115.237
1393035091103,115.225
1393035151103,114.917
1393035211103,115.117
1393035271103,114.991
1393035331103,115.291
1393035391103,114.941
1393035451103,115.017
1393035511103,115.516
1393035571103,115.450
1393035631103,115.539
1393035691103,115.712
1393035751103,115.738
1393035811103,115.691
1393035871103,115.275
1393035931103,115.571
1393035991103,115.419
1393036051103,115.414
1393036111103,115.317
1393036171103,115.319
1393036231103,115.475
1393036291103,115.279
1393036351103,115.468
1393036411103,115.291
1393036471103,115.170
1393036531103,115.657
1393036591103,115.348
1393036651103,115.383
1393036711103,115.437
1393036771103,115.480
1393036831103,115.617
1393036891103,115.922
1393036951103,114.900
1393037011103,115.495
1393037071103,115.162
1393037131103,115.723
1393037191103,115.654
1393037251103,115.905
1393037311103,115.821
1393037371103,116.079
1393037431103,116.072
1393037491103,116.035
1393037551103,115.802
1393037611103,116.091
1393037671103,115.859
1393037731103,115.037
1393037791103,115.560
1393037851103,115.927
1393037911103,115.870
1393037971103,116.335
1393038031114,115.311
1393038091114,115.404
1393038151114,116.048
1393038211114,116.173
1393038271114,116.117
1393038331114,115.907
1393038391114,115.643
1393038451114,116.593
1393038511114,115.735
1393038571114,116.457
1393038631114,115.671
1393038691114,116.124
1393038751114,116.009
1393038811114,116.134
1393038871114,116.230
1393038931114,116.392
1393038991114,116.584
1393039051114,116.096
1393039111114,116.508
1393039171114,116.599
1393039231114,116.105
1393039291114,115.744
1393039351114,116.447
1393039411114,116.108
1393039471114,116.036
1393039531114,116.572
1393039591114,116.245
1393039651114,116.428
1393039711114,116.511
1393039771114,116.604
1393039831114,116.145
1393039891114,116.413
1393039951114,116.086
1393040011114,116.598
1393040071114,116.608
1393040131114,116.312
1393040191114,116.616
1393040251114,116.586
1393040311114,116.748
1393040371114,116.936
1393040431114,116.941
1393040491114,116.988
1393040551114,116.998
1393040611114,116.769
1393040671114,116.550
1393040731114,117.073
1393040791114,116.601
1393040851114,116.720
1393040911114,116.907
1393040971114,116.764
1393041031114,117.310
1393041091114,116.764
1393041151114,117.261
1393041211114,116.887
1393041271114,116.634
1393041331114,117.469
1393041391114,116.741
1393041451114,116.942
1393041511114,117.080
1393041571114,116.495
1393041631125,117.072
1393041691125,117.030
1393041751125,117.493
1393041811125,116.873
1393041871125,116.854
1393041931125,117.071
1393041991125,116.425
1393042051125,116.493
1393042111125,116.808
1393042171125,117.015
1393042231125,116.870
1393042291125,116.889
1393042351125,116.729
1393042411125,116.896
1393042471125,116.739
1393042531125,116.488
1393042591125,116.196
1393042651125,116.651
1393042711125,116.723
1393042771125,116.722
1393042831125,116.793
1393042891125,116.825
1393042951125,116.691
1393043011125,116.554
1393043071125,117.133
1393043131125,117.025
1393043191125,116.888
1393043251125,117.290
1393043311125,116.960
1393043371125,116.984
1393043431125,117.207
1393043491125,117.786
1393043551125,117.711
1393043611125,117.297
1393043671125,117.077
1393043731125,117.634
1393043791125,117.754
1393043851125,117.856
1393043911125,117.447
1393043971125,117.580
1393044031125,117.711
1393044091125,118.303
1393044151125,117.553
1393044211125,117.391
1393044271125,117.520
1393044331125,117.248
1393044391125,117.541
1393044451125,118.039
1393044511125,118.094
1393044571125,117.920
1393044631125,117.811
1393044691125,117.808
1393044751125,117.485
1393044811125,118.374
1393044871125,118.243
1393044931125,118.110
1393044991125,117.817
1393045051125,118.341
1393045111125,118.318
1393045171125,118.029
1393045231136,118.390
1393045291136,118.706
1393045351136,118.435
1393045411136,118.953
1393045471136,118.657
1393045531136,118.360
1393045591136,118.300
1393045651136,118.116
1393045711136,118.752
1393045771136,118.936
1393045831136,119.097
1393045891136,118.694
1393045951136,119.297
1393046011136,118.542
1393046071136,119.001
1393046131136,118.747
1393046191136,119.395
1393046251136,118.858
1393046311136,119.381
1393046371136,119.146
1393046431136,119.120
1393046491136,119.627
1393046551136,118.996
1393046611136,119.615
1393046671136,121.788
1393046731136,119.349
1393046791136,119.777
1393046851136,119.640
1393046911136,119.961
1393046971136,120.186
1393047031136,119.913
1393047091136,119.874
1393047151136,120.292
1393047211136,120.127
1393047271136,120.487
1393047331136,120.597
1393047391136,120.232
1393047451136,119.669
1393047511136,120.206
1393047571136,120.460
1393047631136,120.140
1393047691136,120.905
1393047751136,120.980
1393047811136,121.074
1393047871136,120.605
1393047931136,121.021
1393047991136,121.288
1393048051136,120.931
1393048111136,121.004
1393048171136,120.593
1393048231136,120.944
1393048291136,121.210
1393048351136,121.438
1393048411136,121.182
1393048471136,121.275
1393048531136,121.322
1393048591136,121.160
1393048651136,121.559
1393048711136,120.999
1393048771136,121.479
1393048831147,121.449
1393048891147,121.365
1393048951147,120.667
1393049011147,121.220
1393049071147,121.050
1393049131147,121.702
1393049191147,121.361
1393049251147,121.204
1393049311147,121.749
1393049371147,121.317
1393049431147,121.533
1393049491147,121.414
1393049551147,121.280
1393049611147,121.129
1393049671147,121.459
1393049731147,121.880
1393049791147,121.477
1393049851147,121.528
1393049911147,122.112
1393049971147,122.007
1393050031147,121.970
1393050091147,121.824
1393050151147,121.855
1393050211147,122.345
1393050271147,121.758
1393050331147,121.767
1393050391147,121.951
1393050451147,122.145
1393050511147,121.722
1393050571147,121.872
1393050631147,121.758
1393050691147,122.400
1393050751147,122.361
1393050811147,122.429
1393050871147,121.936
1393050931147,122.010
1393050991147,122.325
1393051051147,121.786
1393051111147,122.232
1393051171147,122.172
1393051231147,121.605
1393051291147,121.931
1393051351147,121.956
1393051411147,121.645
1393051471147,121.760
1393051531147,121.866
1393051591147,122.114
1393051651147,122.153
1393051711147,122.181
1393051771147,122.253
1393051831147,122.586
1393051891147,122.083
1393051951147,122.310
1393052011147,122.096
1393052071147,121.934
1393052131147,122.663
1393052191147,122.521
1393052251147,122.136
1393052311147,122.530
1393052371147,122.060
1393052431158,122.424
1393052491158,122.037
1393052551158,122.104
1393052611158,121.514
1393052671158,121.907
1393052731158,122.532
1393052791158,122.536
1393052851158,121.530
1393052911158,122.432
1393052971158,122.728
1393053031158,122.063
1393053091158,121.985
1393053151158,122.620
1393053211158,122.345
1393053271158,122.205
1393053331158,123.000
1393053391158,122.941
1393053451158,122.453
1393053511158,122.002
1393053571158,122.003
1393053631158,122.115
1393053691158,122.685
1393053751158,122.567
1393053811158,122.605
1393053871158,122.298
1393053931158,122.281
1393053991158,122.173
1393054051158,122.086
1393054111158,121.828
1393054171158,121.921
1393054231158,122.128
1393054291158,121.860
1393054351158,122.062
1393054411158,121.891
1393054471158,122.641
1393054531158,122.373
1393054591158,122.305
1393054651158,121.941
1393054711158,121.901
1393054771158,122.254
1393054831158,122.092
1393054891158,121.555
1393054951158,121.955
1393055011158,122.714
1393055071158,121.791
1393055131158,121.725
1393055191158,121.939
1393055251158,121.749
1393055311158,121.796
1393055371158,121.430
1393055431158,121.688
1393055491158,122.032
1393055551158,121.929
1393055611158,121.864
1393055671158,121.561
1393055731158,121.867
1393055791158,121.991
1393055851158,121.980
1393055911158,121.861
1393055971158,121.828
1393056031169,122.660
1393056091169,121.499
1393056151169,122.082
1393056211169,122.591
1393056271169,121.928
1393056331169,122.071
1393056391169,122.184
1393056451169,122.053
1393056511169,121.627
1393056571169,122.036
1393056631169,122.034
1393056691169,122.217
1393056751169,121.878
1393056811169,122.043
1393056871169,122.307
1393056931169,121.999
1393056991169,122.381
1393057051169,122.150
1393057111169,122.213
1393057171169,122.165
1393057231169,122.012
1393057291169,121.769
1393057351169,121.898
1393057411169,121.954
1393057471169,121.919
1393057531169,122.113
1393057591169,121.722
1393057651169,122.089
1393057711169,121.880
1393057771169,122.359
1393057831169,122.399
1393057891169,122.534
1393057951169,122.387
1393058011169,122.305
1393058071169,122.474
1393058131169,122.315
1393058191169,121.607
1393058251169,121.750
1393058311169,122.345
1393058371169,122.196
1393058431169,122.506
1393058491169,122.268
1393058551169,122.402
1393058611169,122.726
1393058671169,122.834
1393058731169,122.748
1393058791169,122.323
1393058851169,122.428
1393058911169,121.705
1393058971169,122.115
1393059031169,122.794
1393059091169,122.206
1393059151169,121.956
1393059211169,122.679
1393059271169,121.205
1393059331169,122.450
1393059391169,122.139
1393059451169,122.753
1393059511169,122.452
1393059571169,122.467
1393059631180,121.951
1393059691180,122.306
1393059751180,121.957
1393059811180,122.433
1393059871180,122.045
1393059931180,122.241
1393059991180,121.730
1393060051180,121.693
1393060111180,122.026
1393060171180,121.631
1393060231180,121.781
1393060291180,122.187
1393060351180,122.189
1393060411180,121.866
1393060471180,121.806
1393060531180,121.815
1393060591180,122.090
1393060651180,122.084
1393060711180,121.041
1393060771180,121.839
1393060831180,121.419
1393060891180,121.992
1393060951180,121.772
1393061011180,122.247
1393061071180,121.611
1393061131180,121.320
1393061191180,121.549
1393061251180,121.842
1393061311180,121.594
1393061371180,121.593
1393061431180,121.544
1393061491180,121.443
1393061551180,121.353
1393061611180,121.873
1393061671180,121.337
1393061731180,121.646
1393061791180,121.691
1393061851180,122.400
1393061911180,121.976
1393061971180,121.242
1393062031180,121.724
1393062091180,121.868
1393062151180,121.477
1393062211180,121.218
1393062271180,122.112
1393062331180,122.182
1393062391180,121.464
1393062451180,122.259
1393062511180,121.498
1393062571180,121.745
1393062631180,121.590
1393062691180,121.525
1393062751180,121.936
1393062811180,122.132
1393062871180,121.360
1393062931180,121.651
1393062991180,121.855
1393063051180,121.677
1393063111180,121.502
1393063171180,121.539
1393063231191,121.936
1393063291191,121.785
1393063351191,121.877
1393063411191,121.856
1393063471191,121.242
1393063531191,122.040
1393063591191,121.493
1393063651191,121.841
1393063711191,121.578
1393063771191,121.719
1393063831191,121.310
1393063891191,121.420
1393063951191,121.297
1393064011191,121.402
1393064071191,121.354
1393064131191,121.743
1393064191191,120.786
1393064251191,121.433
1393064311191,121.513
1393064371191,121.628
1393064431191,121.522
1393064491191,121.560
1393064551191,121.727
1393064611191,121.163
1393064671191,121.231
1393064731191,121.407
1393064791191,121.233
1393064851191,121.925
1393064911191,121.221
1393064971191,121.366
1393065031191,121.143
1393065091191,121.299
1393065151191,121.480
1393065211191,121.334
1393065271191,121.199
1393065331191,120.978
1393065391191,120.751
1393065451191,121.188
1393065511191,120.892
1393065571191,121.143
1393065631191,120.996
1393065691191,121.023
1393065751191,121.088
1393065811191,120.686
1393065871191,121.464
1393065931191,121.398
1393065991191,120.514
1393066051191,120.470
1393066111191,121.255
1393066171191,120.899
1393066231191,120.752
1393066291191,120.996
1393066351191,121.210
1393066411191,121.226
1393066471191,120.906
1393066531191,120.855
1393066591191,120.208
1393066651191,120.956
1393066711191,120.818
1393066771191,121.033
1393066831202,120.859
1393066891202,120.233
1393066951202,120.822
1393067011202,120.721
1393067071202,121.140
1393067131202,121.086
1393067191202,120.615
1393067251202,120.506
1393067311202,120.564
1393067371202,120.850
1393067431202,120.884
1393067491202,120.448
1393067551202,121.127
1393067611202,120.578
1393067671202,120.761
1393067731202,120.825
1393067791202,120.768
1393067851202,120.874
1393067911202,120.757
1393067971202,120.148
1393068031202,120.513
1393068091202,120.496
1393068151202,120.843
1393068211202,121.012
1393068271202,120.692
1393068331202,120.468
1393068391202,120.835
1393068451202,120.628
1393068511202,120.037
1393068571202,120.252
1393068631202,120.080
1393068691202,120.272
1393068751202,120.296
1393068811202,120.685
1393068871202,120.234
1393068931202,120.201
1393068991202,119.888
1393069051202,120.213
1393069111202,120.772
1393069171202,120.284
1393069231202,120.203
1393069291202,120.657
1393069351202,120.693
1393069411202,120.368
1393069471202,120.281
1393069531202,119.933
1393069591202,120.399
1393069651202,120.496
1393069711202,120.744
1393069771202,120.306
1393069831202,120.532
1393069891202,121.071
1393069951202,120.741
1393070011202,120.207
1393070071202,120.711
1393070131202,120.401
1393070191202,120.689
1393070251202,120.762
1393070311202,120.335
1393070371202,120.612
1393070431213,120.586
1393070491213,120.408
1393070551213,120.232
1393070611213,120.336
1393070671213,120.667
1393070731213,120.923
1393070791213,120.859
1393070851213,120.405
1393070911213,120.471
1393070971213,120.208
1393071031213,120.424
1393071091213,120.007
1393071151213,120.726
1393071211213,120.355
1393071271213,120.386
1393071331213,120.722
1393071391213,120.634
1393071451213,120.546
1393071511213,121.000
1393071571213,120.457
1393071631213,120.626
1393071691213,120.967
1393071751213,120.667
1393071811213,120.762
1393071871213,120.962
1393071931213,121.087
1393071991213,120.650
1393072051213,120.996
1393072111213,120.641
1393072171213,121.357
1393072231213,120.746
1393072291213,121.262
1393072351213,121.499
1393072411213,121.053
1393072471213,120.817
1393072531213,120.870
1393072591213,120.874
1393072651213,121.475
1393072711213,121.174
1393072771213,121.136
1393072831213,121.165
1393072891213,121.496
1393072951213,121.320
1393073011213,120.812
1393073071213,121.561
1393073131213,120.999
1393073191213,121.232
1393073251213,121.089
1393073311213,120.842
1393073371213,120.935
1393073431213,121.478
1393073491213,121.147
1393073551213,120.755
1393073611213,121.367
1393073671213,121.172
1393073731213,121.242
1393073791213,120.917
1393073851213,121.399
1393073911213,121.119
1393073971213,122.146
1393074031224,121.436
1393074091224,121.651
1393074151224,121.235
1393074211224,120.665
1393074271224,121.391
1393074331224,121.002
1393074391224,121.258
1393074451224,121.022
1393074511224,121.384
1393074571224,121.104
1393074631224,120.992
1393074691224,121.539
1393074751224,121.056
1393074811224,121.485
1393074871224,121.100
1393074931224,121.499
1393074991224,121.281
1393075051224,121.503
1393075111224,121.927
1393075171224,121.649
1393075231224,121.291
1393075291224,121.368
1393075351224,121.445
1393075411224,121.807
1393075471224,121.258
1393075531224,121.957
1393075591224,121.280
1393075651224,121.283
1393075711224,121.566
1393075771224,121.472
1393075831224,121.773
1393075891224,121.425
1393075951224,121.807
1393076011224,121.797
1393076071224,121.803
1393076131224,121.494
1393076191224,121.901
1393076251224,121.280
1393076311224,121.165
1393076371224,121.337
1393076431224,121.404
1393076491224,121.643
1393076551224,121.456
1393076611224,121.732
1393076671224,121.693
1393076731224,121.537
1393076791224,121.543
1393076851224,121.616
1393076911224,121.635
1393076971224,121.361
1393077031224,121.624
1393077091224,121.461
1393077151224,121.097
1393077211224,121.513
1393077271224,121.446
1393077331224,121.917
1393077391224,121.549
1393077451224,121.246
1393077511224,121.463
1393077571224,121.566
1393077631235,121.869
1393077691235,121.302
1393077751235,121.715
1393077811235,121.994
1393077871235,122.357
1393077931235,121.688
1393077991235,122.113
1393078051235,121.640
1393078111235,122.208
1393078171235,121.013
1393078231235,122.293
1393078291235,121.731
1393078351235,122.102
1393078411235,122.054
1393078471235,122.095
1393078531235,121.695
1393078591235,121.708
1393078651235,121.645
1393078711235,122.211
1393078771235,122.249
1393078831235,122.229
1393078891235,122.572
1393078951235,122.308
1393079011235,121.798
1393079071235,122.443
1393079131235,122.146
1393079191235,121.989
1393079251235,122.208
1393079311235,122.416
1393079371235,122.242
1393079431235,122.603
1393079491235,121.914
1393079551235,122.564
1393079611235,122.247
1393079671235,122.324
1393079731235,121.985
1393079791235,122.296
1393079851235,121.796
1393079911235,122.471
1393079971235,122.524
1393080031235,122.062
1393080091235,122.021
1393080151235,122.027
1393080211235,122.058
1393080271235,122.623
1393080331235,122.232
1393080391235,121.949
1393080451235,122.231
1393080511235,122.007
1393080571235,121.764
1393080631235,121.981
1393080691235,122.412
1393080751235,122.312
1393080811235,121.865
1393080871235,122.154
1393080931235,122.077
1393080991235,122.239
1393081051235,121.959
1393081111235,122.423
1393081171235,122.106
1393081231246,122.738
1393081291246,122.561
1393081351246,122.324
1393081411246,121.935
1393081471246,121.830
1393081531246,122.600
1393081591245,122.242
1393081651245,122.167
1393081711246,122.557
1393081771246,122.584
1393081831246,122.195
1393081891246,122.102
1393081951246,122.375
1393082011246,122.507
1393082071246,122.539
1393082131246,122.154
1393082191246,122.788
1393082251246,122.528
1393082311246,121.904
1393082371246,122.266
1393082431246,122.811
1393082491246,122.034
1393082551246,122.294
1393082611246,122.179
1393082671246,121.923
1393082731246,121.788
1393082791246,121.940
1393082851246,121.791
1393082911245,122.161
1393082971245,122.130
1393083031246,122.207
1393083091246,121.464
1393083151246,122.092
1393083211246,121.344
1393083271246,121.747
1393083331246,121.492
1393083391246,121.479
1393083451246,121.743
1393083511246,120.965
1393083571246,121.440
1393083631246,121.647
1393083691246,121.203
1393083751246,121.576
1393083811246,120.882
1393083871246,121.496
1393083931246,122.020
1393083991246,121.727
1393084051246,121.263
1393084111246,121.486
1393084171246,121.369
1393084231246,121.050
1393084291245,122.086
1393084351245,121.295
1393084411246,121.635
1393084471246,122.047
1393084531246,121.760
1393084591246,121.676
1393084651246,121.156
1393084711246,121.355
1393084771246,121.269
1393084831256,121.709
1393084891256,121.136
1393084951256,121.629
1393085011256,121.993
1393085071256,121.487
1393085131256,121.631
1393085191256,121.382
1393085251256,122.043
1393085311256,121.699
1393085371256,120.994
1393085431256,121.454
1393085491256,121.735
1393085551256,121.487
1393085611256,121.831
1393085671256,121.929
1393085731256,121.555
1393085791256,121.564
1393085851256,121.806
1393085911256,121.565
1393085971256,121.861
1393086031256,121.703
1393086091256,121.201
1393086151256,121.972
1393086211256,121.609
1393086271256,122.077
1393086331256,121.764
1393086391256,121.327
1393086451256,121.698
1393086511256,121.506
1393086571256,121.909
1393086631256,121.878
1393086691256,121.660
1393086751256,121.677
1393086811256,121.635
1393086871256,121.772
1393086931256,121.530
1393086991256,121.882
1393087051256,121.702
1393087111256,121.847
1393087171256,121.578
1393087231256,122.385
1393087291256,121.701
1393087351256,122.083
1393087411256,122.034
1393087471256,122.153
1393087531256,122.380
1393087591256,122.378
1393087651256,122.071
1393087711256,121.555
1393087771256,122.303
1393087831256,122.547
1393087891256,122.444
1393087951256,121.963
1393088011256,121.758
1393088071256,122.341
1393088131256,121.762
1393088191256,122.060
1393088251256,122.137
1393088311256,121.958
1393088371256,122.317
1393088431267,121.900
1393088491267,121.890
1393088551267,121.839
1393088611267,121.717
1393088671267,122.033
1393088731267,121.979
1393088791267,121.519
1393088851267,122.839
1393088911267,122.121
1393088971267,122.419
1393089031267,122.110
1393089091267,121.924
1393089151267,121.645
1393089211267,122.124
1393089271267,122.253
1393089331267,122.422
1393089391267,122.102
1393089451267,121.442
1393089511267,122.139
1393089571267,122.101
1393089631267,121.831
1393089691267,122.095
1393089751267,121.880
1393089811267,122.042
1393089871267,122.335
1393089931267,121.986
1393089991267,122.007
1393090051267,121.920
1393090111267,122.168
1393090171267,121.935
1393090231267,121.520
1393090291267,122.446
1393090351267,122.464
1393090411267,122.279
1393090471267,121.746
1393090531267,122.400
1393090591267,122.016
1393090651267,121.839
1393090711267,121.529
1393090771267,121.862
1393090831267,122.278
1393090891267,121.906
1393090951267,121.363
1393091011267,121.929
1393091071267,122.310
1393091131267,122.720
1393091191267,121.698
1393091251267,122.248
1393091311267,122.118
1393091371267,122.085
1393091431267,121.981
1393091491267,121.956
1393091551267,122.053
1393091611267,121.772
1393091671267,121.499
1393091731267,121.955
1393091791267,121.809
1393091851267,121.695
1393091911267,121.972
1393091971267,121.504
1393092031278,122.457
1393092091278,121.625
1393092151278,121.757
1393092211278,122.631
1393092271278,121.966
1393092331278,122.657
1393092391278,122.136
1393092451278,121.696
1393092511278,122.021
1393092571278,122.558